Location: Unspecified
(0.0000°N, 0.0000°E)
Time: 14:59:53
(UTC+00:00)

Courier 1B Rocket - Visible Passes

Search period start: 25 May 2016 00:00
Search period end: 04 June 2016 00:00
Orbit: 920 x 1202 km, 28.2° (Epoch: 24 May)

Date Brightness Start Highest point End Pass type
(mag) Time Alt. Az. Time Alt. Az. Time Alt. Az.
25 May 5.8 03:25:36 43° NNE 03:25:36 43° NNE 03:30:11 10° NE visible
25 May 7.0 05:14:18 10° WNW 05:17:42 15° NNW 05:21:02 10° N visible
26 May 7.4 02:28:20 16° ENE 02:28:20 16° ENE 02:29:29 10° ENE visible
26 May 6.5 04:14:42 20° NW 04:16:29 23° NNW 04:21:20 10° NNE visible
27 May 6.4 03:17:24 29° N 03:17:24 29° N 03:21:12 10° NE visible
28 May 7.6 02:20:04 13° NE 02:20:04 13° NE 02:20:45 10° NE visible
28 May 6.9 04:06:25 14° NW 04:08:06 15° NNW 04:11:38 10° N visible
29 May 6.9 03:09:03 20° N 03:09:03 20° N 03:11:56 10° NNE visible
30 May 7.8 02:11:38 11° NE 02:11:38 11° NE 02:11:46 10° NE visible
31 May 7.3 03:00:32 14° N 03:00:32 14° N 03:02:17 10° N visible
02 Jun 7.3 20:01:28 10° SSW 20:02:29 12° S 20:02:29 12° S visible
03 Jun 7.1 19:01:49 10° S 19:04:31 12° SSE 19:05:37 12° SSE visible
